Time,TemperatureF,DewpointF,PressureIn,WindDirection,WindDirectionDegrees,WindSpeedMPH,WindSpeedGustMPH,Humidity,HourlyPrecipIn,Conditions,Clouds,dailyrainin,SolarRadiationWatts/m^2,SoftwareType,DateUTC
2013-05-26 00:07:00,33.0,32.2,29.80,NNW,340,0.0,8.0,97,0.00,-SN,FEW,0.00,0.0,WeatherDisplay:10.37,2013-05-26 04:07:00,
2013-05-26 00:17:00,33.1,32.3,29.79,NNW,342,1.0,5.0,97,0.00,-SN,FEW,0.00,0.0,WeatherDisplay:10.37,2013-05-26 04:17:00,
2013-05-26 00:22:00,33.1,32.3,29.80,North,353,1.0,7.0,97,0.00,-SN,FEW,0.00,0.0,WeatherDisplay:10.37,2013-05-26 04:22:00,
2013-05-26 00:27:00,33.1,32.3,29.80,NNW,344,1.0,5.0,97,0.00,-SN,FEW,0.00,0.0,WeatherDisplay:10.37,2013-05-26 04:27:00,
2013-05-26 00:32:00,33.1,32.3,29.80,North,359,0.0,6.0,97,0.00,-SN,FEW,0.00,0.0,WeatherDisplay:10.37,2013-05-26 04:32:00,
2013-05-26 00:37:00,33.1,32.3,29.80,North,359,0.0,3.0,97,0.00,-SN,FEW,0.00,0.0,WeatherDisplay:10.37,2013-05-26 04:37:00,
2013-05-26 00:42:00,33.2,32.4,29.80,SW,228,0.0,3.0,97,0.00,-SN,FEW,0.00,0.0,WeatherDisplay:10.37,2013-05-26 04:42:00,
2013-05-26 00:47:00,33.2,32.4,29.80,WSW,253,1.0,3.0,97,0.00,-SN,FEW,0.00,0.0,WeatherDisplay:10.37,2013-05-26 04:47:00,
2013-05-26 00:52:00,33.1,32.4,29.79,NW,305,0.0,4.0,97,0.00,-SN,FEW,0.00,0.0,WeatherDisplay:10.37,2013-05-26 04:52:00,
2013-05-26 00:57:00,33.1,32.4,29.79,NW,319,0.0,4.0,97,0.00,-SN,FEW,0.00,0.0,WeatherDisplay:10.37,2013-05-26 04:57:00,
2013-05-26 01:07:00,33.1,32.4,29.79,West,265,0.0,5.0,97,0.00,-SN,FEW,0.00,0.0,WeatherDisplay:10.37,2013-05-26 05:07:00,
2013-05-26 01:17:00,33.1,32.4,29.78,North,10,1.0,6.0,97,0.00,-SN,FEW,0.00,0.0,WeatherDisplay:10.37,2013-05-26 05:17:00,
2013-05-26 01:22:00,33.1,32.3,29.78,North,358,0.0,5.0,97,0.00,-SN,FEW,0.00,0.0,WeatherDisplay:10.37,2013-05-26 05:22:00,
2013-05-26 01:27:00,33.2,32.4,29.78,NNW,329,0.0,2.0,97,0.00,-SN,FEW,0.00,0.0,WeatherDisplay:10.37,2013-05-26 05:27:00,
2013-05-26 01:32:00,33.2,32.4,29.78,NW,320,1.0,3.0,97,0.00,-SN,FEW,0.00,0.0,WeatherDisplay:10.37,2013-05-26 05:32:00,
2013-05-26 01:37:00,33.1,32.4,29.78,WNW,291,0.0,5.0,97,0.00,-SN,FEW,0.00,0.0,WeatherDisplay:10.37,2013-05-26 05:37:00,
2013-05-26 01:42:00,33.1,32.4,29.78,North,2,1.0,6.0,97,0.00,-SN,FEW,0.00,0.0,WeatherDisplay:10.37,2013-05-26 05:42:00,
2013-05-26 01:47:00,33.1,32.3,29.78,North,2,3.0,10.0,97,0.00,-SN,FEW,0.00,0.0,WeatherDisplay:10.37,2013-05-26 05:47:00,
2013-05-26 01:52:00,33.2,32.4,29.78,NNW,347,1.0,6.0,97,0.00,-SN,FEW,0.00,0.0,WeatherDisplay:10.37,2013-05-26 05:52:00,
2013-05-26 01:57:00,33.2,32.4,29.79,NW,319,1.0,5.0,97,0.00,-SN,FEW,0.00,0.0,WeatherDisplay:10.37,2013-05-26 05:57:00,
2013-05-26 02:07:00,33.2,32.4,29.78,WNW,292,0.0,3.0,97,0.00,-SN,FEW,0.00,0.0,WeatherDisplay:10.37,2013-05-26 06:07:00,
2013-05-26 02:17:00,33.2,32.4,29.78,NW,324,1.0,5.0,97,0.00,-SN,FEW,0.00,0.0,WeatherDisplay:10.37,2013-05-26 06:17:00,
2013-05-26 02:22:00,33.2,32.4,29.78,NW,322,1.0,4.0,97,0.00,-SN,FEW,0.00,0.0,WeatherDisplay:10.37,2013-05-26 06:22:00,
2013-05-26 02:27:00,33.2,32.4,29.78,WNW,296,0.0,10.0,97,0.00,-SN,FEW,0.00,0.0,WeatherDisplay:10.37,2013-05-26 06:27:00,
2013-05-26 02:32:00,33.2,32.4,29.77,WNW,287,0.0,4.0,97,0.00,-SN,FEW,0.00,0.0,WeatherDisplay:10.37,2013-05-26 06:32:00,
2013-05-26 02:37:00,33.2,32.4,29.77,NW,312,1.0,5.0,97,0.00,-SN,FEW,0.00,0.0,WeatherDisplay:10.37,2013-05-26 06:37:00,
2013-05-26 02:42:00,33.1,32.3,29.76,WNW,288,0.0,5.0,97,0.00,-SN,FEW,0.00,0.0,WeatherDisplay:10.37,2013-05-26 06:42:00,
2013-05-26 02:47:00,33.1,32.3,29.77,WNW,288,1.0,5.0,97,0.00,-SN,FEW,0.00,0.0,WeatherDisplay:10.37,2013-05-26 06:47:00,
2013-05-26 02:52:00,33.0,32.2,29.76,NW,306,0.0,3.0,97,0.00,-SN,FEW,0.00,0.0,WeatherDisplay:10.37,2013-05-26 06:52:00,
2013-05-26 02:57:00,33.0,32.3,29.76,NW,311,1.0,3.0,97,0.00,-SN,FEW,0.00,0.0,WeatherDisplay:10.37,2013-05-26 06:57:00,
2013-05-26 03:07:00,33.0,32.2,29.76,NW,306,1.0,4.0,97,0.00,-SN,FEW,0.00,0.0,WeatherDisplay:10.37,2013-05-26 07:07:00,
2013-05-26 03:17:00,32.9,32.2,29.76,NW,305,0.0,4.0,97,0.00,-SN,FEW,0.00,0.0,WeatherDisplay:10.37,2013-05-26 07:17:00,
2013-05-26 03:22:00,32.8,32.0,29.76,NNW,341,0.0,2.0,97,0.00,-SN,FEW,0.00,0.0,WeatherDisplay:10.37,2013-05-26 07:22:00,
2013-05-26 03:27:00,32.8,32.0,29.76,NNE,31,0.0,2.0,97,0.00,-SN,FEW,0.00,0.0,WeatherDisplay:10.37,2013-05-26 07:27:00,
2013-05-26 03:32:00,32.7,31.9,29.76,NNE,26,0.0,3.0,97,0.00,-SN,FEW,0.00,0.0,WeatherDisplay:10.37,2013-05-26 07:32:00,
2013-05-26 03:37:00,32.5,31.7,29.76,NNW,341,0.0,3.0,97,0.00,-SN,FEW,0.00,0.0,WeatherDisplay:10.37,2013-05-26 07:37:00,
2013-05-26 03:42:00,32.4,31.6,29.76,WNW,290,2.0,5.0,97,0.00,-SN,FEW,0.00,0.0,WeatherDisplay:10.37,2013-05-26 07:42:00,
2013-05-26 03:47:00,32.3,31.5,29.76,West,277,0.0,4.0,97,0.00,-SN,FEW,0.00,0.0,WeatherDisplay:10.37,2013-05-26 07:47:00,
2013-05-26 03:52:00,32.2,31.5,29.76,WNW,298,0.0,1.0,97,0.00,-SN,FEW,0.00,0.0,WeatherDisplay:10.37,2013-05-26 07:52:00,
2013-05-26 03:57:00,32.3,31.5,29.76,WNW,301,0.0,2.0,97,0.00,-SN,FEW,0.00,0.0,WeatherDisplay:10.37,2013-05-26 07:57:00,
2013-05-26 04:07:00,32.4,31.6,29.76,WNW,285,0.0,4.0,97,0.01,-SN,FEW,0.01,0.0,WeatherDisplay:10.37,2013-05-26 08:07:00,
2013-05-26 04:17:00,32.5,32.0,29.76,West,275,0.0,4.0,98,0.00,-SN,FEW,0.01,0.0,WeatherDisplay:10.37,2013-05-26 08:17:00,
2013-05-26 04:22:00,32.5,32.5,29.76,WNW,283,0.0,3.0,100,0.00,-SN,FEW,0.01,0.0,WeatherDisplay:10.37,2013-05-26 08:22:00,
2013-05-26 04:27:00,32.4,31.6,29.76,West,280,0.0,3.0,97,0.00,-SN,FEW,0.01,0.0,WeatherDisplay:10.37,2013-05-26 08:27:00,
2013-05-26 04:32:00,32.3,31.5,29.76,West,271,0.0,3.0,97,0.00,-SN,FEW,0.01,0.0,WeatherDisplay:10.37,2013-05-26 08:32:00,
2013-05-26 04:37:00,32.3,31.5,29.76,West,273,0.0,1.0,97,0.00,-SN,FEW,0.01,0.0,WeatherDisplay:10.37,2013-05-26 08:37:00,
2013-05-26 04:42:00,32.3,32.3,29.76,West,275,0.0,2.0,100,0.00,-SN,FEW,0.01,0.0,WeatherDisplay:10.37,2013-05-26 08:42:00,
2013-05-26 04:47:00,32.3,32.3,29.76,West,276,0.0,3.0,100,0.00,-SN,FEW,0.01,0.0,WeatherDisplay:10.37,2013-05-26 08:47:00,
2013-05-26 04:52:00,32.4,32.4,29.76,West,270,1.0,4.0,100,0.00,-SN,FEW,0.01,0.0,WeatherDisplay:10.37,2013-05-26 08:52:00,
2013-05-26 04:57:00,32.4,32.4,29.76,West,264,2.0,5.0,100,0.00,-SN,FEW,0.01,0.0,WeatherDisplay:10.37,2013-05-26 08:57:00,
2013-05-26 05:07:00,32.4,32.4,29.77,West,281,0.0,5.0,100,0.01,-SN,FEW,0.02,0.0,WeatherDisplay:10.37,2013-05-26 09:07:00,
2013-05-26 05:17:00,32.4,32.4,29.77,WNW,297,0.0,3.0,100,0.00,-SN,FEW,0.02,0.0,WeatherDisplay:10.37,2013-05-26 09:17:00,
2013-05-26 05:22:00,32.4,32.4,29.76,WNW,293,0.0,4.0,100,0.00,-SN,FEW,0.02,0.0,WeatherDisplay:10.37,2013-05-26 09:22:00,
2013-05-26 05:27:00,32.4,32.4,29.76,WNW,293,0.0,2.0,100,0.00,-SN,FEW,0.02,0.0,WeatherDisplay:10.37,2013-05-26 09:27:00,
2013-05-26 05:32:00,32.5,32.5,29.76,NW,306,0.0,1.0,100,0.00,-SN,FEW,0.02,5.0,WeatherDisplay:10.37,2013-05-26 09:32:00,
2013-05-26 05:37:00,32.5,32.5,29.76,NW,307,0.0,1.0,100,0.00,-SN,FEW,0.02,9.0,WeatherDisplay:10.37,2013-05-26 09:37:00,
2013-05-26 05:42:00,32.5,32.5,29.77,NW,313,0.0,2.0,100,0.00,-SN,FEW,0.02,12.0,WeatherDisplay:10.37,2013-05-26 09:42:00,
2013-05-26 05:47:00,32.5,32.5,29.77,NNE,31,0.0,4.0,100,0.00,OVC,FEW,0.02,16.0,WeatherDisplay:10.37,2013-05-26 09:47:00,
2013-05-26 05:52:00,32.5,32.5,29.77,East,87,0.0,2.0,100,0.00,OVC,FEW,0.02,21.0,WeatherDisplay:10.37,2013-05-26 09:52:00,
2013-05-26 05:57:00,32.5,32.5,29.77,NW,326,1.0,6.0,100,0.01,RA,FEW,0.03,23.0,WeatherDisplay:10.37,2013-05-26 09:57:00,
2013-05-26 06:07:00,32.5,32.5,29.77,NNW,329,0.0,4.0,100,0.00,OVC,FEW,0.03,25.0,WeatherDisplay:10.37,2013-05-26 10:07:00,
2013-05-26 06:17:00,32.6,32.6,29.77,NNW,337,0.0,2.0,100,0.00,OVC,FEW,0.03,32.0,WeatherDisplay:10.37,2013-05-26 10:17:00,
2013-05-26 06:22:00,32.6,32.6,29.77,NW,312,1.0,3.0,100,0.00,OVC,FEW,0.03,30.0,WeatherDisplay:10.37,2013-05-26 10:22:00,
2013-05-26 06:27:00,32.6,32.6,29.78,WNW,290,0.0,3.0,100,0.00,OVC,FEW,0.03,30.0,WeatherDisplay:10.37,2013-05-26 10:27:00,
2013-05-26 06:32:00,32.6,32.6,29.78,NW,312,0.0,3.0,100,0.00,-SN,FEW,0.03,32.0,WeatherDisplay:10.37,2013-05-26 10:32:00,
2013-05-26 06:37:00,32.6,32.6,29.78,NW,306,0.0,4.0,100,0.01,-SN,FEW,0.04,30.0,WeatherDisplay:10.37,2013-05-26 10:37:00,
2013-05-26 06:42:00,32.7,32.7,29.78,West,263,0.0,3.0,100,0.00,-SN,FEW,0.04,25.0,WeatherDisplay:10.37,2013-05-26 10:42:00,
2013-05-26 06:47:00,32.6,32.6,29.78,West,264,0.0,2.0,100,0.00,-SN,FEW,0.04,28.0,WeatherDisplay:10.37,2013-05-26 10:47:00,
2013-05-26 06:52:00,32.7,32.7,29.78,West,264,0.0,3.0,100,0.00,-SN,FEW,0.04,46.0,WeatherDisplay:10.37,2013-05-26 10:52:00,
2013-05-26 06:57:00,32.7,32.7,29.78,West,262,0.0,4.0,100,0.00,-SN,FEW,0.04,47.0,WeatherDisplay:10.37,2013-05-26 10:57:00,
2013-05-26 07:07:00,33.1,33.1,29.78,WSW,249,0.0,4.0,100,0.00,OVC,FEW,0.04,62.0,WeatherDisplay:10.37,2013-05-26 11:07:00,
2013-05-26 07:17:00,33.4,33.4,29.79,West,281,1.0,4.0,100,0.01,-SN,FEW,0.05,95.0,WeatherDisplay:10.37,2013-05-26 11:17:00,
2013-05-26 07:22:00,33.4,33.4,29.79,NW,305,1.0,7.0,100,0.00,-SN,FEW,0.05,123.0,WeatherDisplay:10.37,2013-05-26 11:22:00,
2013-05-26 07:27:00,33.6,33.6,29.79,WNW,286,1.0,9.0,100,0.00,-SN,FEW,0.05,116.0,WeatherDisplay:10.37,2013-05-26 11:27:00,
2013-05-26 07:32:00,33.8,33.8,29.79,NW,323,2.0,5.0,100,0.00,-RA,FEW,0.05,134.0,WeatherDisplay:10.37,2013-05-26 11:32:00,
2013-05-26 07:37:00,33.9,33.9,29.79,North,359,2.0,9.0,100,0.00,-RA,FEW,0.05,128.0,WeatherDisplay:10.37,2013-05-26 11:37:00,
2013-05-26 07:42:00,34.0,34.0,29.80,NNW,348,1.0,5.0,100,0.00,-RA,FEW,0.05,125.0,WeatherDisplay:10.37,2013-05-26 11:42:00,
2013-05-26 07:47:00,34.2,34.2,29.79,North,349,0.0,3.0,100,0.00,-RA,FEW,0.05,123.0,WeatherDisplay:10.37,2013-05-26 11:47:00,
2013-05-26 07:52:00,34.3,34.3,29.80,NW,318,0.0,3.0,100,0.00,-RA,FEW,0.05,142.0,WeatherDisplay:10.37,2013-05-26 11:52:00,
2013-05-26 07:57:00,34.5,34.5,29.80,WNW,284,1.0,3.0,100,0.00,-RA,FEW,0.05,135.0,WeatherDisplay:10.37,2013-05-26 11:57:00,
2013-05-26 08:07:00,34.5,34.5,29.80,West,280,1.0,5.0,100,0.00,-RA,FEW,0.05,151.0,WeatherDisplay:10.37,2013-05-26 12:07:00,
2013-05-26 08:17:00,34.3,34.3,29.80,North,8,2.0,6.0,100,0.00,-RA,FEW,0.05,179.0,WeatherDisplay:10.37,2013-05-26 12:17:00,
2013-05-26 08:22:00,34.4,34.4,29.80,West,262,1.0,5.0,100,0.00,-RA,FEW,0.05,158.0,WeatherDisplay:10.37,2013-05-26 12:22:00,
2013-05-26 08:27:00,34.6,34.6,29.80,WNW,301,0.0,4.0,100,0.00,-RA,FEW,0.05,139.0,WeatherDisplay:10.37,2013-05-26 12:27:00,
2013-05-26 08:32:00,34.6,34.6,29.80,NW,314,1.0,10.0,100,0.00,-RA,FEW,0.05,149.0,WeatherDisplay:10.37,2013-05-26 12:32:00,
2013-05-26 08:37:00,34.5,34.5,29.81,WNW,302,0.0,7.0,100,0.00,-RA,FEW,0.05,190.0,WeatherDisplay:10.37,2013-05-26 12:37:00,
2013-05-26 08:42:00,34.5,34.5,29.81,WNW,286,1.0,6.0,100,0.01,-RA,FEW,0.06,209.0,WeatherDisplay:10.37,2013-05-26 12:42:00,
2013-05-26 08:47:00,34.6,34.6,29.81,WNW,290,3.0,7.0,100,0.00,RA,FEW,0.06,163.0,WeatherDisplay:10.37,2013-05-26 12:47:00,
2013-05-26 08:52:00,34.6,34.6,29.81,NW,308,1.0,4.0,100,0.00,OVC,FEW,0.06,181.0,WeatherDisplay:10.37,2013-05-26 12:52:00,
2013-05-26 08:57:00,34.9,34.9,29.81,NW,321,1.0,5.0,100,0.00,OVC,FEW,0.06,200.0,WeatherDisplay:10.37,2013-05-26 12:57:00,
2013-05-26 09:07:00,35.2,35.2,29.81,WNW,296,0.0,7.0,100,0.00,OVC,FEW,0.06,207.0,WeatherDisplay:10.37,2013-05-26 13:07:00,
2013-05-26 09:17:00,35.4,35.4,29.81,North,5,1.0,5.0,100,0.00,OVC,FEW,0.06,192.0,WeatherDisplay:10.37,2013-05-26 13:17:00,
2013-05-26 09:27:00,35.7,35.7,29.81,NW,310,3.0,9.0,100,0.00,OVC,FEW,0.06,241.0,WeatherDisplay:10.37,2013-05-26 13:27:00,
2013-05-26 09:32:00,35.7,35.0,29.82,West,267,0.0,9.0,97,0.00,OVC,FEW,0.06,197.0,WeatherDisplay:10.37,2013-05-26 13:32:00,
2013-05-26 09:37:00,35.9,35.1,29.82,West,275,1.0,9.0,97,0.00,OVC,FEW,0.06,253.0,WeatherDisplay:10.37,2013-05-26 13:37:00,
2013-05-26 09:42:00,36.2,35.4,29.82,NW,313,1.0,4.0,97,0.00,OVC,FEW,0.06,214.0,WeatherDisplay:10.37,2013-05-26 13:42:00,
2013-05-26 09:47:00,36.3,35.5,29.82,NW,306,1.0,6.0,97,0.00,OVC,FEW,0.06,213.0,WeatherDisplay:10.37,2013-05-26 13:47:00,
2013-05-26 09:52:00,36.5,35.7,29.82,WNW,287,1.0,5.0,97,0.00,OVC,FEW,0.06,178.0,WeatherDisplay:10.37,2013-05-26 13:52:00,
2013-05-26 09:57:00,36.6,35.8,29.82,West,271,2.0,7.0,97,0.00,OVC,FEW,0.06,183.0,WeatherDisplay:10.37,2013-05-26 13:57:00,
2013-05-26 10:07:00,36.6,35.8,29.82,WNW,302,1.0,7.0,97,0.00,OVC,FEW,0.06,171.0,WeatherDisplay:10.37,2013-05-26 14:07:00,
2013-05-26 10:17:00,36.5,35.7,29.82,WNW,292,3.0,12.0,97,0.00,OVC,FEW,0.06,206.0,WeatherDisplay:10.37,2013-05-26 14:17:00,
2013-05-26 10:22:00,36.4,35.6,29.82,WNW,301,1.0,12.0,97,0.00,OVC,FEW,0.06,227.0,WeatherDisplay:10.37,2013-05-26 14:22:00,
2013-05-26 10:27:00,36.5,35.7,29.82,NW,308,2.0,4.0,97,0.00,OVC,FEW,0.06,241.0,WeatherDisplay:10.37,2013-05-26 14:27:00,
2013-05-26 10:32:00,36.7,35.9,29.82,NW,323,2.0,12.0,97,0.00,OVC,FEW,0.06,302.0,WeatherDisplay:10.37,2013-05-26 14:32:00,
2013-05-26 10:37:00,37.0,36.2,29.82,NNW,346,2.0,6.0,97,0.00,OVC,FEW,0.06,230.0,WeatherDisplay:10.37,2013-05-26 14:37:00,
2013-05-26 10:42:00,37.1,36.3,29.82,NW,316,2.0,7.0,97,0.00,OVC,FEW,0.06,274.0,WeatherDisplay:10.37,2013-05-26 14:42:00,
2013-05-26 10:47:00,37.2,36.4,29.82,WNW,292,3.0,9.0,97,0.00,OVC,FEW,0.06,432.0,WeatherDisplay:10.37,2013-05-26 14:47:00,
2013-05-26 10:52:00,37.4,36.6,29.82,WNW,299,1.0,5.0,97,0.00,OVC,FEW,0.06,346.0,WeatherDisplay:10.37,2013-05-26 14:52:00,
2013-05-26 10:57:00,37.8,37.0,29.82,NNW,333,0.0,4.0,97,0.00,OVC,FEW,0.06,362.0,WeatherDisplay:10.37,2013-05-26 14:57:00,
2013-05-26 11:07:00,38.3,37.5,29.83,NE,47,1.0,13.0,97,0.00,OVC,FEW,0.06,359.0,WeatherDisplay:10.37,2013-05-26 15:07:00,
2013-05-26 11:17:00,39.0,38.2,29.83,WNW,282,3.0,6.0,97,0.00,OVC,FEW,0.06,526.0,WeatherDisplay:10.37,2013-05-26 15:17:00,
2013-05-26 11:22:00,39.2,38.4,29.83,West,275,1.0,6.0,97,0.00,OVC,FEW,0.06,380.0,WeatherDisplay:10.37,2013-05-26 15:22:00,
2013-05-26 11:27:00,39.1,38.1,29.83,WNW,296,2.0,10.0,96,0.00,OVC,FEW,0.06,234.0,WeatherDisplay:10.37,2013-05-26 15:27:00,
2013-05-26 11:32:00,38.8,37.8,29.83,NW,314,1.0,5.0,96,0.00,OVC,FEW,0.06,258.0,WeatherDisplay:10.37,2013-05-26 15:32:00,
2013-05-26 11:37:00,38.6,37.3,29.84,WNW,302,0.0,5.0,95,0.00,OVC,FEW,0.06,325.0,WeatherDisplay:10.37,2013-05-26 15:37:00,
2013-05-26 11:42:00,38.6,37.6,29.83,WSW,254,1.0,3.0,96,0.00,OVC,FEW,0.06,181.0,WeatherDisplay:10.37,2013-05-26 15:42:00,
2013-05-26 11:47:00,38.5,37.5,29.84,ENE,69,1.0,5.0,96,0.00,OVC,FEW,0.06,225.0,WeatherDisplay:10.37,2013-05-26 15:47:00,
2013-05-26 11:52:00,38.3,37.0,29.84,NW,309,2.0,14.0,95,0.00,OVC,FEW,0.06,330.0,WeatherDisplay:10.37,2013-05-26 15:52:00,
2013-05-26 11:57:00,38.3,37.3,29.84,WNW,289,1.0,7.0,96,0.00,OVC,FEW,0.06,295.0,WeatherDisplay:10.37,2013-05-26 15:57:00,
2013-05-26 12:07:00,38.9,37.9,29.84,NW,304,2.0,7.0,96,0.00,-RA,FEW,0.06,246.0,WeatherDisplay:10.37,2013-05-26 16:07:00,
2013-05-26 12:17:00,39.0,37.7,29.84,NW,326,2.0,12.0,95,0.00,-RA,FEW,0.06,385.0,WeatherDisplay:10.37,2013-05-26 16:17:00,
2013-05-26 12:22:00,39.2,38.2,29.84,NNW,333,1.0,4.0,96,0.00,-RA,FEW,0.06,636.0,WeatherDisplay:10.37,2013-05-26 16:22:00,
2013-05-26 12:27:00,39.9,39.2,29.84,NW,325,1.0,4.0,97,0.00,-RA,FEW,0.06,543.0,WeatherDisplay:10.37,2013-05-26 16:27:00,
2013-05-26 12:32:00,40.3,39.3,29.84,SSW,213,1.0,3.0,96,0.00,-RA,FEW,0.06,468.0,WeatherDisplay:10.37,2013-05-26 16:32:00,
2013-05-26 12:37:00,40.5,39.5,29.84,WSW,241,2.0,5.0,96,0.00,-RA,FEW,0.06,501.0,WeatherDisplay:10.37,2013-05-26 16:37:00,
2013-05-26 12:42:00,40.6,39.6,29.84,NW,324,3.0,10.0,96,0.00,-RA,FEW,0.06,638.0,WeatherDisplay:10.37,2013-05-26 16:42:00,
2013-05-26 12:47:00,41.1,40.1,29.85,NW,314,1.0,4.0,96,0.00,-RA,FEW,0.06,615.0,WeatherDisplay:10.37,2013-05-26 16:47:00,
2013-05-26 12:52:00,41.3,40.2,29.84,ESE,118,0.0,9.0,96,0.00,-RA,FEW,0.06,339.0,WeatherDisplay:10.37,2013-05-26 16:52:00,
2013-05-26 12:57:00,41.1,39.8,29.85,NW,318,2.0,5.0,95,0.00,-RA,FEW,0.06,336.0,WeatherDisplay:10.37,2013-05-26 16:57:00,
2013-05-26 13:07:00,40.9,39.9,29.85,WNW,303,1.0,15.0,96,0.00,-RA,FEW,0.06,475.0,WeatherDisplay:10.37,2013-05-26 17:07:00,
2013-05-26 13:17:00,41.1,39.8,29.85,NW,309,3.0,10.0,95,0.00,-RA,FEW,0.06,355.0,WeatherDisplay:10.37,2013-05-26 17:17:00,
2013-05-26 13:22:00,41.1,39.8,29.85,WNW,297,3.0,12.0,95,0.00,-RA,FEW,0.06,359.0,WeatherDisplay:10.37,2013-05-26 17:22:00,
2013-05-26 13:27:00,40.8,39.2,29.85,West,281,5.0,15.0,94,0.00,-RA,FEW,0.06,316.0,WeatherDisplay:10.37,2013-05-26 17:27:00,
2013-05-26 13:32:00,40.5,39.2,29.85,WNW,302,1.0,10.0,95,0.00,-RA,FEW,0.06,315.0,WeatherDisplay:10.37,2013-05-26 17:32:00,
2013-05-26 13:37:00,40.4,39.1,29.86,West,276,1.0,9.0,95,0.00,-RA,FEW,0.06,306.0,WeatherDisplay:10.37,2013-05-26 17:37:00,
2013-05-26 13:42:00,40.3,39.0,29.86,West,259,3.0,9.0,95,0.01,-RA,FEW,0.07,244.0,WeatherDisplay:10.37,2013-05-26 17:42:00,
2013-05-26 13:47:00,40.3,39.0,29.86,WNW,284,1.0,5.0,95,0.00,-RA,FEW,0.07,285.0,WeatherDisplay:10.37,2013-05-26 17:47:00,
2013-05-26 13:52:00,40.3,39.3,29.86,NW,315,5.0,12.0,96,0.00,-RA,FEW,0.07,315.0,WeatherDisplay:10.37,2013-05-26 17:52:00,
2013-05-26 13:57:00,40.2,39.2,29.86,NW,309,1.0,4.0,96,0.00,-RA,FEW,0.07,288.0,WeatherDisplay:10.37,2013-05-26 17:57:00,
2013-05-26 14:07:00,40.4,39.4,29.87,NW,313,3.0,10.0,96,0.00,-RA,FEW,0.07,271.0,WeatherDisplay:10.37,2013-05-26 18:07:00,
2013-05-26 14:17:00,40.1,38.8,29.87,NNW,330,2.0,7.0,95,0.00,-RA,FEW,0.07,185.0,WeatherDisplay:10.37,2013-05-26 18:17:00,
2013-05-26 14:22:00,39.9,38.6,29.88,WNW,296,1.0,5.0,95,0.00,-RA,FEW,0.07,213.0,WeatherDisplay:10.37,2013-05-26 18:22:00,
2013-05-26 14:32:00,39.8,38.8,29.88,NNW,335,2.0,10.0,96,0.00,-RA,FEW,0.07,302.0,WeatherDisplay:10.37,2013-05-26 18:32:00,
2013-05-26 14:37:00,39.8,38.8,29.88,NNW,340,1.0,9.0,96,0.00,-RA,FEW,0.07,290.0,WeatherDisplay:10.37,2013-05-26 18:37:00,
2013-05-26 14:42:00,39.9,38.6,29.88,NW,308,2.0,12.0,95,0.00,-RA,FEW,0.07,248.0,WeatherDisplay:10.37,2013-05-26 18:42:00,
2013-05-26 14:47:00,40.1,39.1,29.88,WNW,288,1.0,12.0,96,0.00,-RA,FEW,0.07,243.0,WeatherDisplay:10.37,2013-05-26 18:47:00,
2013-05-26 14:52:00,40.1,38.8,29.88,NW,308,1.0,12.0,95,0.00,-RA,FEW,0.07,162.0,WeatherDisplay:10.37,2013-05-26 18:52:00,
2013-05-26 14:57:00,40.0,39.0,29.89,NW,309,1.0,6.0,96,0.01,-RA,FEW,0.08,232.0,WeatherDisplay:10.37,2013-05-26 18:57:00,
2013-05-26 15:07:00,39.8,38.8,29.89,WNW,290,5.0,9.0,96,0.00,-RA,FEW,0.08,230.0,WeatherDisplay:10.37,2013-05-26 19:07:00,
2013-05-26 15:17:00,39.6,38.6,29.89,West,273,1.0,6.0,96,0.00,-RA,FEW,0.08,227.0,WeatherDisplay:10.37,2013-05-26 19:17:00,
2013-05-26 15:22:00,39.7,38.7,29.89,NNE,33,0.0,10.0,96,0.00,-RA,FEW,0.08,360.0,WeatherDisplay:10.37,2013-05-26 19:22:00,
2013-05-26 15:27:00,40.1,39.1,29.90,NNW,348,1.0,6.0,96,0.00,-RA,FEW,0.08,199.0,WeatherDisplay:10.37,2013-05-26 19:27:00,
2013-05-26 15:32:00,40.2,39.1,29.90,WNW,294,1.0,10.0,96,0.00,OVC,FEW,0.08,279.0,WeatherDisplay:10.37,2013-05-26 19:32:00,
2013-05-26 15:37:00,40.3,39.3,29.89,WNW,303,2.0,6.0,96,0.00,OVC,FEW,0.08,385.0,WeatherDisplay:10.37,2013-05-26 19:37:00,
2013-05-26 15:42:00,40.7,39.7,29.89,NW,308,2.0,9.0,96,0.00,OVC,FEW,0.08,410.0,WeatherDisplay:10.37,2013-05-26 19:42:00,
2013-05-26 15:47:00,41.0,39.9,29.89,WNW,298,3.0,10.0,96,0.00,OVC,FEW,0.08,330.0,WeatherDisplay:10.37,2013-05-26 19:47:00,
2013-05-26 15:52:00,41.1,40.0,29.90,NNW,346,1.0,7.0,96,0.00,OVC,FEW,0.08,243.0,WeatherDisplay:10.37,2013-05-26 19:52:00,
2013-05-26 15:57:00,41.1,39.8,29.90,NNW,341,2.0,17.0,95,0.00,OVC,FEW,0.08,434.0,WeatherDisplay:10.37,2013-05-26 19:57:00,
2013-05-26 16:07:00,41.1,39.8,29.91,NNW,335,3.0,10.0,95,0.01,-RA,FEW,0.09,316.0,WeatherDisplay:10.37,2013-05-26 20:07:00,
2013-05-26 16:17:00,41.4,40.3,29.91,West,267,0.0,9.0,96,0.00,-RA,FEW,0.09,323.0,WeatherDisplay:10.37,2013-05-26 20:17:00,
2013-05-26 16:22:00,41.4,39.8,29.91,West,274,3.0,7.0,94,0.00,-RA,FEW,0.09,135.0,WeatherDisplay:10.37,2013-05-26 20:22:00,
2013-05-26 16:27:00,41.3,40.0,29.91,WNW,282,3.0,10.0,95,0.00,-RA,FEW,0.09,97.0,WeatherDisplay:10.37,2013-05-26 20:27:00,
2013-05-26 16:32:00,40.9,39.3,29.91,NNE,24,0.0,10.0,94,0.00,-RA,FEW,0.09,301.0,WeatherDisplay:10.37,2013-05-26 20:32:00,
2013-05-26 16:37:00,40.8,39.2,29.92,NNW,341,3.0,12.0,94,0.00,-RA,FEW,0.09,272.0,WeatherDisplay:10.37,2013-05-26 20:37:00,
2013-05-26 16:42:00,41.0,39.6,29.91,NW,307,5.0,9.0,95,0.00,-RA,FEW,0.09,246.0,WeatherDisplay:10.37,2013-05-26 20:42:00,
2013-05-26 16:47:00,40.9,39.3,29.92,WNW,303,3.0,12.0,94,0.00,-RA,FEW,0.09,156.0,WeatherDisplay:10.37,2013-05-26 20:47:00,
2013-05-26 16:52:00,40.8,39.3,29.92,NNW,327,1.0,10.0,94,0.00,-RA,FEW,0.09,114.0,WeatherDisplay:10.37,2013-05-26 20:52:00,
2013-05-26 16:57:00,40.8,39.5,29.92,WNW,296,2.0,5.0,95,0.00,-RA,FEW,0.09,209.0,WeatherDisplay:10.37,2013-05-26 20:57:00,
2013-05-26 17:07:00,40.4,39.1,29.93,WNW,302,0.0,13.0,95,0.00,OVC,FEW,0.09,343.0,WeatherDisplay:10.37,2013-05-26 21:07:00,
2013-05-26 17:17:00,40.5,38.9,29.93,NW,304,1.0,13.0,94,0.00,OVC,FEW,0.09,116.0,WeatherDisplay:10.37,2013-05-26 21:17:00,
2013-05-26 17:22:00,40.4,39.1,29.93,WNW,291,1.0,12.0,95,0.00,OVC,FEW,0.09,160.0,WeatherDisplay:10.37,2013-05-26 21:22:00,
2013-05-26 17:27:00,40.5,39.2,29.93,West,273,0.0,17.0,95,0.00,OVC,FEW,0.09,183.0,WeatherDisplay:10.37,2013-05-26 21:27:00,
2013-05-26 17:32:00,40.6,39.3,29.94,WNW,286,5.0,12.0,95,0.00,OVC,FEW,0.09,151.0,WeatherDisplay:10.37,2013-05-26 21:32:00,
2013-05-26 17:37:00,40.5,38.9,29.94,NW,320,5.0,7.0,94,0.00,OVC,FEW,0.09,339.0,WeatherDisplay:10.37,2013-05-26 21:37:00,
2013-05-26 17:42:00,40.8,39.5,29.94,WNW,298,2.0,6.0,95,0.00,OVC,FEW,0.09,244.0,WeatherDisplay:10.37,2013-05-26 21:42:00,
2013-05-26 17:47:00,40.8,39.2,29.94,NW,307,1.0,9.0,94,0.00,OVC,FEW,0.09,144.0,WeatherDisplay:10.37,2013-05-26 21:47:00,
2013-05-26 17:52:00,40.8,39.2,29.94,NNW,327,1.0,7.0,94,0.00,OVC,FEW,0.09,69.0,WeatherDisplay:10.37,2013-05-26 21:52:00,
2013-05-26 17:57:00,40.6,39.0,29.95,North,351,1.0,9.0,94,0.00,OVC,FEW,0.09,65.0,WeatherDisplay:10.37,2013-05-26 21:57:00,
2013-05-26 18:07:00,39.9,38.4,29.95,WNW,299,1.0,10.0,94,0.01,RA,FEW,0.10,86.0,WeatherDisplay:10.37,2013-05-26 22:07:00,
2013-05-26 18:17:00,39.6,38.3,29.95,WNW,283,0.0,6.0,95,0.00,OVC,FEW,0.10,100.0,WeatherDisplay:10.37,2013-05-26 22:17:00,
2013-05-26 18:22:00,39.6,38.3,29.95,East,90,1.0,5.0,95,0.00,OVC,FEW,0.10,76.0,WeatherDisplay:10.37,2013-05-26 22:22:00,
2013-05-26 18:27:00,39.6,38.3,29.96,WNW,293,2.0,15.0,95,0.00,OVC,FEW,0.10,81.0,WeatherDisplay:10.37,2013-05-26 22:27:00,
2013-05-26 18:32:00,39.5,38.2,29.96,WSW,237,1.0,6.0,95,0.00,OVC,FEW,0.10,105.0,WeatherDisplay:10.37,2013-05-26 22:32:00,
2013-05-26 18:37:00,39.4,38.1,29.96,WSW,256,0.0,7.0,95,0.00,OVC,FEW,0.10,53.0,WeatherDisplay:10.37,2013-05-26 22:37:00,
2013-05-26 18:47:00,39.1,37.8,29.97,NNE,12,2.0,10.0,95,0.01,RA,FEW,0.12,28.0,WeatherDisplay:10.37,2013-05-26 22:47:00,
2013-05-26 18:52:00,38.8,37.5,29.97,NW,318,5.0,12.0,95,0.01,RA,FEW,0.13,26.0,WeatherDisplay:10.37,2013-05-26 22:52:00,
2013-05-26 18:57:00,38.4,37.1,29.97,WNW,295,1.0,12.0,95,0.01,RA,FEW,0.14,25.0,WeatherDisplay:10.37,2013-05-26 22:57:00,
2013-05-26 19:07:00,37.5,36.2,29.98,NNE,17,2.0,10.0,95,0.02,RA,FEW,0.16,18.0,WeatherDisplay:10.37,2013-05-26 23:07:00,
2013-05-26 19:17:00,37.4,36.4,29.98,East,82,0.0,3.0,96,0.01,RA,FEW,0.17,23.0,WeatherDisplay:10.37,2013-05-26 23:17:00,
2013-05-26 19:22:00,37.5,36.5,29.98,SE,131,1.0,4.0,96,0.00,RA,FEW,0.17,26.0,WeatherDisplay:10.37,2013-05-26 23:22:00,
2013-05-26 19:27:00,37.7,36.9,29.98,NW,304,1.0,7.0,97,0.00,OVC,FEW,0.17,26.0,WeatherDisplay:10.37,2013-05-26 23:27:00,
2013-05-26 19:32:00,37.8,37.0,29.98,NW,323,1.0,4.0,97,0.00,OVC,FEW,0.17,26.0,WeatherDisplay:10.37,2013-05-26 23:32:00,
2013-05-26 19:37:00,38.0,37.2,29.98,NW,317,2.0,9.0,97,0.00,OVC,FEW,0.17,19.0,WeatherDisplay:10.37,2013-05-26 23:37:00,
2013-05-26 19:42:00,38.0,37.0,29.98,SW,231,2.0,10.0,96,0.00,OVC,FEW,0.17,18.0,WeatherDisplay:10.37,2013-05-26 23:42:00,
2013-05-26 19:47:00,38.0,37.0,29.98,NNW,331,1.0,12.0,96,0.00,OVC,FEW,0.17,19.0,WeatherDisplay:10.37,2013-05-26 23:47:00,
2013-05-26 19:52:00,37.9,36.9,29.98,NNW,339,1.0,9.0,96,0.00,OVC,FEW,0.17,11.0,WeatherDisplay:10.37,2013-05-26 23:52:00,
2013-05-26 19:57:00,37.7,36.7,29.98,WSW,254,0.0,6.0,96,0.00,OVC,FEW,0.17,5.0,WeatherDisplay:10.37,2013-05-26 23:57:00,
2013-05-26 20:07:00,37.5,36.5,29.99,North,3,1.0,8.0,96,0.00,OVC,FEW,0.17,5.0,WeatherDisplay:10.37,2013-05-27 00:07:00,
2013-05-26 20:17:00,37.4,36.4,29.99,WNW,285,0.0,4.0,96,0.00,OVC,FEW,0.17,0.0,WeatherDisplay:10.37,2013-05-27 00:17:00,
2013-05-26 20:22:00,37.4,36.4,29.99,SW,215,0.0,3.0,96,0.00,OVC,FEW,0.17,0.0,WeatherDisplay:10.37,2013-05-27 00:22:00,
2013-05-26 20:27:00,37.4,36.4,29.99,WSW,237,0.0,4.0,96,0.00,OVC,FEW,0.17,0.0,WeatherDisplay:10.37,2013-05-27 00:27:00,
2013-05-26 20:32:00,37.4,36.3,29.99,SW,233,0.0,4.0,96,0.00,OVC,FEW,0.17,0.0,WeatherDisplay:10.37,2013-05-27 00:32:00,
2013-05-26 20:37:00,37.3,36.3,29.99,SW,225,1.0,2.0,96,0.00,OVC,FEW,0.17,0.0,WeatherDisplay:10.37,2013-05-27 00:37:00,
2013-05-26 20:42:00,37.4,36.4,29.99,South,186,1.0,3.0,96,0.00,OVC,FEW,0.17,0.0,WeatherDisplay:10.37,2013-05-27 00:42:00,
2013-05-26 20:47:00,37.4,36.6,29.99,SSW,207,0.0,2.0,97,0.00,OVC,FEW,0.17,0.0,WeatherDisplay:10.37,2013-05-27 00:47:00,
2013-05-26 20:52:00,37.4,36.6,29.99,WSW,250,0.0,6.0,97,0.00,OVC,FEW,0.17,0.0,WeatherDisplay:10.37,2013-05-27 00:52:00,
2013-05-26 20:57:00,37.4,36.6,29.99,SW,222,0.0,4.0,97,0.00,OVC,FEW,0.17,0.0,WeatherDisplay:10.37,2013-05-27 00:57:00,
2013-05-26 21:07:00,37.2,36.2,29.99,ESE,111,1.0,6.0,96,0.00,OVC,FEW,0.17,0.0,WeatherDisplay:10.37,2013-05-27 01:07:00,
2013-05-26 21:17:00,37.1,36.1,29.99,SSW,207,2.0,9.0,96,0.00,OVC,FEW,0.17,0.0,WeatherDisplay:10.37,2013-05-27 01:17:00,
2013-05-26 21:22:00,37.0,36.0,29.99,SSW,196,1.0,7.0,96,0.00,OVC,FEW,0.17,0.0,WeatherDisplay:10.37,2013-05-27 01:22:00,
2013-05-26 21:27:00,36.9,35.6,29.99,SSE,166,0.0,5.0,95,0.00,OVC,FEW,0.17,0.0,WeatherDisplay:10.37,2013-05-27 01:27:00,
2013-05-26 21:32:00,36.9,35.6,29.99,SW,217,1.0,6.0,95,0.00,OVC,FEW,0.17,0.0,WeatherDisplay:10.37,2013-05-27 01:32:00,
2013-05-26 21:37:00,36.8,35.5,29.99,WSW,247,2.0,5.0,95,0.00,OVC,FEW,0.17,0.0,WeatherDisplay:10.37,2013-05-27 01:37:00,
2013-05-26 21:42:00,36.7,35.4,29.99,WSW,256,2.0,5.0,95,0.00,OVC,FEW,0.17,0.0,WeatherDisplay:10.37,2013-05-27 01:42:00,
2013-05-26 21:47:00,36.7,35.4,30.00,WSW,257,2.0,9.0,95,0.00,OVC,FEW,0.17,0.0,WeatherDisplay:10.37,2013-05-27 01:47:00,
2013-05-26 21:52:00,36.7,35.4,30.00,West,277,1.0,5.0,95,0.00,OVC,FEW,0.17,0.0,WeatherDisplay:10.37,2013-05-27 01:52:00,
2013-05-26 21:57:00,36.7,35.4,30.01,NW,324,1.0,12.0,95,0.00,OVC,FEW,0.17,0.0,WeatherDisplay:10.37,2013-05-27 01:57:00,
2013-05-26 22:07:00,36.6,35.3,30.00,North,357,0.0,14.0,95,0.00,OVC,FEW,0.17,0.0,WeatherDisplay:10.37,2013-05-27 02:07:00,
2013-05-26 22:17:00,36.5,35.2,30.00,WSW,250,1.0,4.0,95,0.00,OVC,FEW,0.17,0.0,WeatherDisplay:10.37,2013-05-27 02:17:00,
2013-05-26 22:22:00,36.4,35.1,30.01,West,260,1.0,7.0,95,0.00,OVC,FEW,0.17,0.0,WeatherDisplay:10.37,2013-05-27 02:22:00,
2013-05-26 22:27:00,36.5,35.2,30.00,West,268,1.0,5.0,95,0.00,OVC,FEW,0.17,0.0,WeatherDisplay:10.37,2013-05-27 02:27:00,
2013-05-26 22:32:00,36.5,35.5,30.00,West,261,1.0,4.0,96,0.00,OVC,FEW,0.17,0.0,WeatherDisplay:10.37,2013-05-27 02:32:00,
2013-05-26 22:37:00,36.5,35.2,30.00,NNE,32,0.0,10.0,95,0.00,OVC,FEW,0.17,0.0,WeatherDisplay:10.37,2013-05-27 02:37:00,
2013-05-26 22:42:00,36.4,35.1,30.01,North,6,1.0,7.0,95,0.00,OVC,FEW,0.17,0.0,WeatherDisplay:10.37,2013-05-27 02:42:00,
2013-05-26 22:47:00,36.4,35.1,30.00,WNW,301,1.0,7.0,95,0.00,OVC,FEW,0.17,0.0,WeatherDisplay:10.37,2013-05-27 02:47:00,
2013-05-26 22:52:00,36.4,35.1,30.00,WNW,302,0.0,4.0,95,0.00,OVC,FEW,0.17,0.0,WeatherDisplay:10.37,2013-05-27 02:52:00,
2013-05-26 22:57:00,36.3,35.0,30.00,NW,305,0.0,4.0,95,0.00,OVC,FEW,0.17,0.0,WeatherDisplay:10.37,2013-05-27 02:57:00,
2013-05-26 23:07:00,36.0,34.7,30.02,WNW,290,0.0,4.0,95,0.00,BKN,FEW,0.17,0.0,WeatherDisplay:10.37,2013-05-27 03:07:00,
2013-05-26 23:17:00,35.5,34.2,30.02,West,276,0.0,2.0,95,0.00,BKN,FEW,0.17,0.0,WeatherDisplay:10.37,2013-05-27 03:17:00,
2013-05-26 23:22:00,35.4,34.1,30.02,NW,320,0.0,2.0,95,0.00,BKN,FEW,0.17,0.0,WeatherDisplay:10.37,2013-05-27 03:22:00,
2013-05-26 23:27:00,35.2,33.9,30.02,North,349,0.0,0.0,95,0.00,BKN,FEW,0.17,0.0,WeatherDisplay:10.37,2013-05-27 03:27:00,
2013-05-26 23:32:00,34.9,33.6,30.02,North,350,0.0,1.0,95,0.00,BKN,FEW,0.17,0.0,WeatherDisplay:10.37,2013-05-27 03:32:00,
2013-05-26 23:37:00,34.8,33.5,30.02,North,353,0.0,1.0,95,0.00,BKN,FEW,0.17,0.0,WeatherDisplay:10.37,2013-05-27 03:37:00,
2013-05-26 23:42:00,34.6,33.6,30.02,North,355,0.0,0.0,96,0.00,BKN,FEW,0.17,0.0,WeatherDisplay:10.37,2013-05-27 03:42:00,
2013-05-26 23:47:00,34.5,33.5,30.02,North,355,0.0,0.0,96,0.00,BKN,FEW,0.17,0.0,WeatherDisplay:10.37,2013-05-27 03:47:00,
2013-05-26 23:52:00,34.3,33.3,30.02,North,355,0.0,1.0,96,0.00,BKN,FEW,0.17,0.0,WeatherDisplay:10.37,2013-05-27 03:52:00,
2013-05-26 23:57:00,34.2,33.2,30.02,NNW,335,0.0,1.0,96,0.00,BKN,FEW,0.17,0.0,WeatherDisplay:10.37,2013-05-27 03:57:00,